Weather History for Walnut Ridge, AR

Change the Weather History Date:

Thursday, January 24, 2013

  Actual Average Record
Temperature  
Mean Temperature 32 °F -  
Max Temperature 37 °F 43 °F 64 °F (2006)
Min Temperature 28 °F 28 °F 8 °F (2003)
Degree Days  
Heating Degree Days 32    
Moisture  
Dew Point 21 °F    
Average Humidity 65    
Maximum Humidity 81    
Minimum Humidity 52    
Precipitation  
Precipitation 0.00 in - - ()
Sea Level Pressure  
Sea Level Pressure 30.38 in    
Wind  
Wind Speed 13 mph (NE)    
Max Wind Speed 23 mph    
Max Gust Speed 26 mph    
Visibility 10 miles    
Events      
Averages and records for this station are not official NWS values.
T = Trace of Precipitation, MM = Missing Value Source: NWS Daily Summary

Daily Weather History Graph

Daily Weather History Graph

Search for Another Location

Airport:

Trip Planner

Search our weather history database for the weather conditions in past years. The results will help you decide how hot, cold, wet, or windy it might be!

Date:

Astronomy

Jan. 24, 2013 Rise Set
Actual Time 7:09 AM CST 5:22 PM CST
Civil Twilight 6:42 AM CST 5:49 PM CST
Nautical Twilight 6:11 AM CST 6:20 PM CST
Astronomical Twilight 5:40 AM CST 6:51 PM CST
Moon 3:25 PM CST (1/24) 5:06 AM CST (1/24)
Length of Visible Light 11h 07m
Length of Day
10h 12m
Waxing Gibbous, 94% of the Moon is Illuminated
Jan 24
Waxing Gibbous
Jan 26
Full
Feb 3
Last Quarter
Feb 10
New
Feb 17
First Quarter

Hourly Weather History & Observations

Time (CST) Temp. Windchill Dew Point Humidity Pressure Visibility Wind Dir Wind Speed Gust Speed Precip Events Conditions
12:15 AM 37.4 °F 29.8 °F 32.0 °F 81% 30.26 in 10.0 mi North 11.5 mph - N/A   Clear
12:35 AM 37.4 °F 30.8 °F 30.2 °F 75% 30.27 in 10.0 mi North 9.2 mph - N/A   Clear
12:55 AM 35.6 °F 29.9 °F 30.2 °F 81% 30.28 in 10.0 mi North 6.9 mph - N/A   Clear
1:15 AM 35.6 °F 28.0 °F 30.2 °F 81% 30.28 in 10.0 mi North 10.4 mph - N/A   Clear
1:35 AM 37.4 °F 32.1 °F 28.4 °F 70% 30.29 in 10.0 mi North 6.9 mph - N/A   Clear
2:15 AM 37.4 °F 30.8 °F 26.6 °F 65% 30.31 in 10.0 mi North 9.2 mph - N/A   Clear
2:35 AM 37.4 °F 30.3 °F 26.6 °F 65% 30.33 in 10.0 mi North 10.4 mph - N/A   Partly Cloudy
2:55 AM 37.4 °F 29.8 °F 26.6 °F 65% 30.34 in 10.0 mi North 11.5 mph - N/A   Mostly Cloudy
3:15 AM 35.6 °F 28.6 °F 28.4 °F 75% 30.34 in 10.0 mi North 9.2 mph - N/A   Overcast
3:35 AM 35.6 °F 28.6 °F 26.6 °F 70% 30.34 in 10.0 mi NNE 9.2 mph - N/A   Overcast
3:56 AM 35.6 °F 26.2 °F 26.6 °F 70% 30.34 in 10.0 mi NNE 15.0 mph - N/A   Overcast
4:15 AM 35.6 °F 25.9 °F 23.0 °F 60% 30.35 in 10.0 mi NNE 16.1 mph - N/A   Overcast
4:35 AM 35.6 °F 27.1 °F 21.2 °F 56% 30.36 in 10.0 mi NNE 12.7 mph - N/A   Overcast
4:55 AM 35.6 °F 25.5 °F 21.2 °F 56% 30.36 in 10.0 mi NNE 17.3 mph - N/A   Overcast
5:15 AM 33.8 °F 24.3 °F 24.8 °F 70% 30.38 in 10.0 mi NNE 13.8 mph - N/A   Overcast
5:35 AM 33.8 °F 23.5 °F 21.2 °F 60% 30.39 in 10.0 mi NNE 16.1 mph - N/A   Overcast
5:55 AM 33.8 °F 23.5 °F 17.6 °F 52% 30.40 in 10.0 mi NNE 16.1 mph 21.9 mph N/A   Overcast
6:35 AM 32.0 °F 20.8 °F 19.4 °F 60% 30.43 in 10.0 mi NNE 17.3 mph 20.7 mph N/A   Overcast
6:55 AM 32.0 °F 22.1 °F 19.4 °F 60% 30.44 in 10.0 mi NNE 13.8 mph - N/A   Overcast
7:35 AM 30.2 °F 17.4 °F 21.2 °F 69% 30.46 in 10.0 mi ENE 20.7 mph - N/A   Overcast
7:55 AM 30.2 °F 17.4 °F 19.4 °F 64% 30.47 in 10.0 mi NE 20.7 mph 24.2 mph N/A   Overcast
8:15 AM 28.4 °F 15.8 °F 19.4 °F 69% 30.48 in 10.0 mi NE 18.4 mph 25.3 mph N/A   Overcast
8:36 AM 28.4 °F 15.8 °F 19.4 °F 69% 30.49 in 10.0 mi ENE 18.4 mph - N/A   Mostly Cloudy
9:15 AM 28.4 °F 16.2 °F 19.4 °F 69% 30.50 in 10.0 mi ENE 17.3 mph - N/A   Mostly Cloudy
10:15 AM 28.4 °F 15.1 °F 17.6 °F 64% 30.52 in 10.0 mi NE 20.7 mph 24.2 mph N/A   Overcast
10:35 AM 28.4 °F 15.4 °F 17.6 °F 64% 30.52 in 10.0 mi NE 19.6 mph 25.3 mph N/A   Overcast
10:56 AM 28.4 °F 15.4 °F 17.6 °F 64% 30.52 in 10.0 mi NE 19.6 mph - N/A   Overcast
11:15 AM 28.4 °F 14.4 °F 17.6 °F 64% 30.51 in 10.0 mi NE 23.0 mph 26.5 mph N/A   Overcast
11:35 AM 28.4 °F 14.7 °F 19.4 °F 69% 30.50 in 10.0 mi NE 21.9 mph 26.5 mph N/A   Overcast
12:15 PM 28.4 °F 14.7 °F 19.4 °F 69% 30.48 in 10.0 mi NE 21.9 mph 26.5 mph N/A   Overcast
12:35 PM 28.4 °F 15.4 °F 19.4 °F 69% 30.47 in 10.0 mi NE 19.6 mph 25.3 mph N/A   Overcast
12:55 PM 30.2 °F 18.1 °F 17.6 °F 60% 30.46 in 10.0 mi NE 18.4 mph 21.9 mph N/A   Overcast
1:35 PM 30.2 °F 18.5 °F 17.6 °F 60% 30.44 in 10.0 mi NE 17.3 mph - N/A   Overcast
1:55 PM 30.2 °F 18.5 °F 17.6 °F 60% 30.43 in 10.0 mi NNE 17.3 mph 23.0 mph N/A   Overcast
2:35 PM 30.2 °F 19.3 °F 17.6 °F 60% 30.41 in 10.0 mi NE 15.0 mph - N/A   Overcast
2:55 PM 30.2 °F 17.8 °F 17.6 °F 60% 30.40 in 10.0 mi NE 19.6 mph - N/A   Overcast
3:15 PM 30.2 °F 18.1 °F 17.6 °F 60% 30.40 in 10.0 mi NE 18.4 mph - N/A   Overcast
3:55 PM 30.2 °F 19.3 °F 17.6 °F 60% 30.38 in 10.0 mi NE 15.0 mph - N/A   Overcast
4:15 PM 30.2 °F 19.3 °F 17.6 °F 60% 30.38 in 10.0 mi NE 15.0 mph - N/A   Overcast
4:35 PM 30.2 °F 19.8 °F 15.8 °F 55% 30.38 in 10.0 mi NE 13.8 mph - N/A   Overcast
4:56 PM 30.2 °F 19.3 °F 19.4 °F 64% 30.37 in 10.0 mi NE 15.0 mph - N/A   Overcast
5:15 PM 30.2 °F 20.2 °F 17.6 °F 60% 30.37 in 10.0 mi NE 12.7 mph - N/A   Overcast
5:35 PM 30.2 °F 20.2 °F 17.6 °F 60% 30.36 in 10.0 mi NE 12.7 mph - N/A   Overcast
5:55 PM 30.2 °F 19.8 °F 17.6 °F 60% 30.37 in 10.0 mi NE 13.8 mph - N/A   Overcast
6:15 PM 30.2 °F 21.9 °F 19.4 °F 64% 30.37 in 10.0 mi NE 9.2 mph - N/A   Overcast
6:35 PM 30.2 °F 21.3 °F 19.4 °F 64% 30.37 in 10.0 mi NE 10.4 mph - N/A   Overcast
6:55 PM 32.0 °F 24.8 °F 19.4 °F 60% 30.35 in 10.0 mi NE 8.1 mph - N/A   Overcast
7:35 PM 32.0 °F 24.2 °F 21.2 °F 64% 30.35 in 10.0 mi NE 9.2 mph - N/A   Overcast
7:55 PM 32.0 °F 24.2 °F 21.2 °F 64% 30.33 in 10.0 mi NE 9.2 mph - N/A   Overcast
8:15 PM 32.0 °F 24.8 °F 21.2 °F 64% 30.33 in 10.0 mi NE 8.1 mph - N/A   Overcast
8:35 PM 32.0 °F 24.2 °F 21.2 °F 64% 30.32 in 10.0 mi NE 9.2 mph - N/A   Overcast
8:55 PM 32.0 °F 23.0 °F 21.2 °F 64% 30.28 in 10.0 mi NE 11.5 mph - N/A   Overcast
9:15 PM 32.0 °F 23.6 °F 21.2 °F 64% 30.28 in 10.0 mi NE 10.4 mph - N/A   Overcast
9:35 PM 32.0 °F 24.8 °F 21.2 °F 64% 30.30 in 10.0 mi NNE 8.1 mph - N/A   Overcast
9:55 PM 32.0 °F 24.2 °F 24.8 °F 75% 30.29 in 10.0 mi NNE 9.2 mph - N/A   Overcast
10:55 PM 32.0 °F 24.2 °F 24.8 °F 75% 30.28 in 10.0 mi NNE 9.2 mph - N/A   Overcast
11:15 PM 32.0 °F 24.8 °F 24.8 °F 75% 30.27 in 10.0 mi NNE 8.1 mph - N/A   Overcast
11:55 PM 32.0 °F 25.6 °F 23.0 °F 69% 30.25 in 10.0 mi NE 6.9 mph - N/A   Overcast